This demonstration page uses our WeatherBlox Daily Observations layout. Learn more.

Left ArrowRight Arrow

39.92423, -83.80882

Hourly Observations for January 7, 2020

Temp ( °F °C ) Dew Point ( °F °C ) Humidity (%) Winds ( mph kmh ) Pressure ( in mb ) Visibility ( mi km ) Precip ( " mm )
12:56 am 00:56 Clear 28 -2.2 26 -3.3 92 92 E 5 7 30.1 1019 10 16.0934 0 0
1:56 am 01:56 Clear 28 -2.2 26 -3.3 92 92 ESE 5 7 30.08 1019 10 16.0934 0 0
2:56 am 02:56 Mostly Clear 26 -3.3 25 -3.9 96 96 ENE 3 6 30.06 1018 10 16.0934 0 0
3:56 am 03:56 Clear 26 -3.3 24 -4.4 92 92 ENE 5 7 30.03 1017 10 16.0934 0 0
4:56 am 04:56 Partly Cloudy 27 -2.8 24 -4.4 89 89 E 3 6 30.01 1016 10 16.0934 0 0
5:56 am 05:56 Mostly Cloudy 27 -2.8 25 -3.9 92 92 N 3 6 30.02 1017 10 16.0934 0 0
6:56 am 06:56 Mostly Cloudy 29 -1.7 27 -2.8 92 92 Calm 30.01 1016 10 16.0934 0 0
7:56 am 07:56 Partly Cloudy 28 -2.2 26 -3.3 92 92 Calm 30 1016 10 16.0934 0 0
8:56 am 08:56 Sunny 28 -2.2 26 -3.3 92 92 Calm 30.01 1016 10 16.0934 0 0
9:56 am 09:56 Sunny 34 1.1 28 -2.2 79 79 Calm 30.02 1017 10 16.0934 0 0
10:56 am 10:56 Sunny 38 3.3 26 -3.3 62 62 SSW 6 9 30.03 1017 10 16.0934 0 0
11:56 am 11:56 Sunny 41 5 25 -3.9 53 53 W 10 17 30.02 1017 10 16.0934 0 0
12:56 pm 12:56 Sunny 44 6.7 25 -3.9 47 47 W 10 17 29.98 1015 10 16.0934 1.6 40.64
1:56 pm 13:56 Sunny 45 7.2 23 -5 42 42 W 17 28 29.97 1015 10 16.0934 0 0
2:56 pm 14:56 Cloudy 44 6.7 21 -6.1 40 40 W 14 22 29.98 1015 10 16.0934 0 0
3:56 pm 15:56 Cloudy 42 5.6 24 -4.4 49 49 W 14 22 30.01 1016 10 16.0934 0 0
4:56 pm 16:56 Cloudy 42 5.6 24 -4.4 49 49 W 18 30 30.02 1017 10 16.0934 0 0
5:56 pm 17:56 Clear 38 3.3 24 -4.4 57 57 WSW 13 20 30.05 1018 10 16.0934 0 0
6:56 pm 18:56 Partly Cloudy 36 2.2 24 -4.4 62 62 W 10 17 30.06 1018 10 16.0934 0 0
7:56 pm 19:56 Cloudy 38 3.3 27 -2.8 65 65 W 14 22 30.08 1019 10 16.0934 0.09 2.286
8:56 pm 20:56 Clear 36 2.2 27 -2.8 70 70 WSW 9 15 30.07 1018 10 16.0934 0.65 16.51
9:56 pm 21:56 Cloudy 37 2.8 28 -2.2 70 70 WSW 16 26 30.06 1018 10 16.0934 1.18 29.972
10:56 pm 22:56 Cloudy 37 2.8 29 -1.7 73 73 W 13 20 30.07 1018 10 16.0934 0.33 8.382
11:56 pm 23:56 Cloudy 36 2.2 30 -1.1 79 79 W 14 22 30.08 1019 10 16.0934 1.3 33.02

Powered by AerisWeather